Tracking 29594 objects as of 20-Sep-2024
HD Live streaming from Space Station
objects crossing your sky now

STARLINK-4117

Track STARLINK-4117 now!
10-day predictions
STARLINK-4117 is classified as:


NORAD ID: 53169
Int'l Code: 2022-083AP
Perigee: 545.9 km
Apogee: 547.8 km
Inclination: 53.2 °
Period: 95.4 minutes
Semi major axis: 6917 km
RCS: Unknown
Launch date: July 17, 2022
Source: United States (US)
Launch site: AIR FORCE EASTERN TEST RANGE (AFETR)
Your satellite tracking list
Your tracking list is empty




NASA's NSSDC Master Catalog

Two Line Element Set (TLE):
1 53169U 22083AP  24263.66785795  .00001213  00000-0  94255-4 0  9995
2 53169  53.2184  35.6749 0001384  90.1116 270.0035 15.08842352121275
Source of the keplerian elements: AFSPC